Time,TemperatureF,DewpointF,PressureIn,WindDirection,WindDirectionDegrees,WindSpeedMPH,WindSpeedGustMPH,Humidity,HourlyPrecipIn,Conditions,Clouds,dailyrainin,SoftwareType,DateUTC
2013-04-27 00:01:00,37.0,23.0,30.32,North,-999,-999.0,-999.0,55,-99.99,,,-99.99,,2013-04-27 06:01:00,
2013-04-27 00:12:00,34.0,23.0,30.32,North,-999,-999.0,-999.0,65,-99.99,,,-99.99,,2013-04-27 06:12:00,
2013-04-27 00:22:00,34.0,23.0,30.32,North,-999,-999.0,-999.0,65,-99.99,,,-99.99,,2013-04-27 06:22:00,
2013-04-27 00:32:00,34.0,23.0,30.32,North,-999,-999.0,-999.0,65,-99.99,,,-99.99,,2013-04-27 06:32:00,
2013-04-27 00:42:00,32.0,23.0,30.31,North,-999,-999.0,-999.0,68,-99.99,,,-99.99,,2013-04-27 06:42:00,
2013-04-27 00:51:00,32.0,23.0,30.31,North,-999,-999.0,-999.0,68,-99.99,,,-99.99,,2013-04-27 06:51:00,
2013-04-27 01:01:00,32.0,23.0,30.31,North,-999,-999.0,-999.0,68,-99.99,,,-99.99,,2013-04-27 07:01:00,
2013-04-27 01:11:00,32.0,23.0,30.30,North,-999,-999.0,-999.0,69,-99.99,,,-99.99,,2013-04-27 07:11:00,
2013-04-27 01:21:00,32.0,23.0,30.30,North,-999,-999.0,-999.0,69,-99.99,,,-99.99,,2013-04-27 07:21:00,
2013-04-27 01:31:00,32.0,23.0,30.30,North,-999,-999.0,-999.0,69,-99.99,,,-99.99,,2013-04-27 07:31:00,
2013-04-27 01:42:00,32.0,23.0,30.30,North,-999,-999.0,-999.0,69,-99.99,,,-99.99,,2013-04-27 07:42:00,
2013-04-27 01:52:00,31.0,23.0,30.30,North,-999,-999.0,-999.0,70,-99.99,,,-99.99,,2013-04-27 07:52:00,
2013-04-27 02:01:00,31.0,23.0,30.30,North,-999,-999.0,-999.0,70,-99.99,,,-99.99,,2013-04-27 08:01:00,
2013-04-27 02:11:00,29.0,22.0,30.29,North,-999,-999.0,-999.0,73,-99.99,,,-99.99,,2013-04-27 08:11:00,
2013-04-27 02:21:00,29.0,22.0,30.29,North,-999,-999.0,-999.0,73,-99.99,,,-99.99,,2013-04-27 08:21:00,
2013-04-27 02:33:00,29.0,22.0,30.29,North,-999,-999.0,-999.0,73,-99.99,,,-99.99,,2013-04-27 08:33:00,
2013-04-27 02:41:00,31.0,22.0,30.28,North,-999,-999.0,-999.0,68,-99.99,,,-99.99,,2013-04-27 08:41:00,
2013-04-27 02:51:00,31.0,22.0,30.28,North,-999,-999.0,-999.0,68,-99.99,,,-99.99,,2013-04-27 08:51:00,
2013-04-27 03:01:00,31.0,22.0,30.28,North,-999,-999.0,-999.0,68,-99.99,,,-99.99,,2013-04-27 09:01:00,
2013-04-27 03:11:00,28.0,21.0,30.27,North,-999,-999.0,-999.0,75,-99.99,,,-99.99,,2013-04-27 09:11:00,
2013-04-27 03:21:00,28.0,21.0,30.27,North,-999,-999.0,-999.0,75,-99.99,,,-99.99,,2013-04-27 09:21:00,
2013-04-27 03:33:00,28.0,21.0,30.27,North,-999,-999.0,-999.0,75,-99.99,,,-99.99,,2013-04-27 09:33:00,
2013-04-27 03:43:00,28.0,21.0,30.27,North,-999,-999.0,-999.0,75,-99.99,,,-99.99,,2013-04-27 09:43:00,
2013-04-27 03:53:00,28.0,20.0,30.27,North,-999,-999.0,-999.0,71,-99.99,,,-99.99,,2013-04-27 09:53:00,
2013-04-27 04:02:00,28.0,20.0,30.27,North,-999,-999.0,-999.0,71,-99.99,,,-99.99,,2013-04-27 10:02:00,
2013-04-27 04:12:00,27.0,19.0,30.27,North,-999,-999.0,-999.0,72,-99.99,,,-99.99,,2013-04-27 10:12:00,
2013-04-27 04:22:00,27.0,19.0,30.27,North,-999,-999.0,-999.0,72,-99.99,,,-99.99,,2013-04-27 10:22:00,
2013-04-27 04:32:00,27.0,19.0,30.27,North,-999,-999.0,-999.0,72,-99.99,,,-99.99,,2013-04-27 10:32:00,
2013-04-27 04:42:00,28.0,19.0,30.27,North,-999,-999.0,-999.0,68,-99.99,,,-99.99,,2013-04-27 10:42:00,
2013-04-27 04:52:00,28.0,19.0,30.27,North,-999,-999.0,-999.0,68,-99.99,,,-99.99,,2013-04-27 10:52:00,
2013-04-27 05:02:00,28.0,19.0,30.27,North,-999,-999.0,-999.0,68,-99.99,,,-99.99,,2013-04-27 11:02:00,
2013-04-27 05:12:00,30.0,18.0,30.28,North,-999,-999.0,-999.0,60,-99.99,,,-99.99,,2013-04-27 11:12:00,
2013-04-27 05:22:00,30.0,18.0,30.28,North,-999,-999.0,-999.0,60,-99.99,,,-99.99,,2013-04-27 11:22:00,
2013-04-27 05:31:00,30.0,18.0,30.28,North,-999,-999.0,-999.0,60,-99.99,,,-99.99,,2013-04-27 11:31:00,
2013-04-27 05:42:00,30.0,18.0,30.28,North,-999,-999.0,-999.0,60,-99.99,,,-99.99,,2013-04-27 11:42:00,
2013-04-27 05:52:00,31.0,17.0,30.27,North,-999,-999.0,-999.0,56,-99.99,,,-99.99,,2013-04-27 11:52:00,
2013-04-27 06:01:00,31.0,17.0,30.27,North,-999,-999.0,-999.0,56,-99.99,,,-99.99,,2013-04-27 12:01:00,
2013-04-27 06:11:00,31.0,17.0,30.27,North,-999,-999.0,-999.0,56,-99.99,,,-99.99,,2013-04-27 12:11:00,
2013-04-27 06:21:00,30.0,17.0,30.28,North,-999,-999.0,-999.0,57,-99.99,,,-99.99,,2013-04-27 12:21:00,
2013-04-27 06:32:00,30.0,17.0,30.28,North,-999,-999.0,-999.0,57,-99.99,,,-99.99,,2013-04-27 12:32:00,
2013-04-27 06:42:00,32.0,17.0,30.28,North,-999,-999.0,-999.0,53,-99.99,,,-99.99,,2013-04-27 12:42:00,
2013-04-27 06:52:00,32.0,17.0,30.28,North,-999,-999.0,-999.0,53,-99.99,,,-99.99,,2013-04-27 12:52:00,
2013-04-27 07:02:00,32.0,17.0,30.28,North,-999,-999.0,-999.0,53,-99.99,,,-99.99,,2013-04-27 13:02:00,
2013-04-27 07:11:00,32.0,18.0,30.28,North,-999,-999.0,-999.0,55,-99.99,,,-99.99,,2013-04-27 13:11:00,
2013-04-27 07:21:00,32.0,18.0,30.28,North,-999,-999.0,-999.0,55,-99.99,,,-99.99,,2013-04-27 13:21:00,
2013-04-27 07:32:00,32.0,18.0,30.28,North,-999,-999.0,-999.0,55,-99.99,,,-99.99,,2013-04-27 13:32:00,
2013-04-27 07:42:00,37.0,21.0,30.29,North,-999,-999.0,-999.0,53,-99.99,,,-99.99,,2013-04-27 13:42:00,
2013-04-27 07:52:00,37.0,21.0,30.29,North,-999,-999.0,-999.0,53,-99.99,,,-99.99,,2013-04-27 13:52:00,
2013-04-27 08:02:00,37.0,21.0,30.29,North,-999,-999.0,-999.0,53,-99.99,,,-99.99,,2013-04-27 14:02:00,
2013-04-27 08:11:00,41.0,20.0,30.29,North,-999,-999.0,-999.0,42,-99.99,,,-99.99,,2013-04-27 14:11:00,
2013-04-27 08:21:00,41.0,20.0,30.29,North,-999,-999.0,-999.0,42,-99.99,,,-99.99,,2013-04-27 14:21:00,
2013-04-27 08:31:00,41.0,20.0,30.29,North,-999,-999.0,-999.0,42,-99.99,,,-99.99,,2013-04-27 14:31:00,
2013-04-27 08:42:00,47.0,17.0,30.29,North,-999,-999.0,-999.0,30,-99.99,,,-99.99,,2013-04-27 14:42:00,
2013-04-27 08:52:00,47.0,17.0,30.29,North,-999,-999.0,-999.0,30,-99.99,,,-99.99,,2013-04-27 14:52:00,
2013-04-27 09:01:00,47.0,17.0,30.29,North,-999,-999.0,-999.0,30,-99.99,,,-99.99,,2013-04-27 15:01:00,
2013-04-27 09:12:00,51.0,18.0,30.29,North,-999,-999.0,-999.0,26,-99.99,,,-99.99,,2013-04-27 15:12:00,
2013-04-27 09:21:00,51.0,18.0,30.29,North,-999,-999.0,-999.0,26,-99.99,,,-99.99,,2013-04-27 15:21:00,
2013-04-27 09:33:00,51.0,18.0,30.29,North,-999,-999.0,-999.0,26,-99.99,,,-99.99,,2013-04-27 15:33:00,
2013-04-27 09:42:00,54.0,18.0,30.28,North,-999,-999.0,-999.0,24,-99.99,,,-99.99,,2013-04-27 15:42:00,
2013-04-27 09:52:00,54.0,18.0,30.28,North,-999,-999.0,-999.0,24,-99.99,,,-99.99,,2013-04-27 15:52:00,
2013-04-27 10:03:00,54.0,18.0,30.28,North,-999,-999.0,-999.0,24,-99.99,,,-99.99,,2013-04-27 16:03:00,
2013-04-27 10:13:00,54.0,18.0,30.28,North,-999,-999.0,-999.0,24,-99.99,,,-99.99,,2013-04-27 16:13:00,
2013-04-27 10:22:00,55.0,18.0,30.29,North,-999,-999.0,-999.0,23,-99.99,,,-99.99,,2013-04-27 16:22:00,
2013-04-27 10:32:00,55.0,18.0,30.29,North,-999,-999.0,-999.0,23,-99.99,,,-99.99,,2013-04-27 16:32:00,
2013-04-27 10:42:00,56.0,17.0,30.29,North,-999,-999.0,-999.0,22,-99.99,,,-99.99,,2013-04-27 16:42:00,
2013-04-27 10:52:00,56.0,17.0,30.29,North,-999,-999.0,-999.0,22,-99.99,,,-99.99,,2013-04-27 16:52:00,
2013-04-27 11:02:00,56.0,17.0,30.29,North,-999,-999.0,-999.0,22,-99.99,,,-99.99,,2013-04-27 17:02:00,
2013-04-27 11:12:00,58.0,15.0,30.29,North,-999,-999.0,-999.0,18,-99.99,,,-99.99,,2013-04-27 17:12:00,
2013-04-27 11:22:00,58.0,15.0,30.29,North,-999,-999.0,-999.0,18,-99.99,,,-99.99,,2013-04-27 17:22:00,
2013-04-27 11:32:00,58.0,15.0,30.29,North,-999,-999.0,-999.0,18,-99.99,,,-99.99,,2013-04-27 17:32:00,
2013-04-27 11:42:00,58.0,15.0,30.29,North,-999,-999.0,-999.0,18,-99.99,,,-99.99,,2013-04-27 17:42:00,
2013-04-27 11:52:00,58.0,11.0,30.28,North,-999,-999.0,-999.0,14,-99.99,,,-99.99,,2013-04-27 17:52:00,
2013-04-27 12:02:00,58.0,11.0,30.28,North,-999,-999.0,-999.0,14,-99.99,,,-99.99,,2013-04-27 18:02:00,
2013-04-27 12:12:00,59.0,10.0,30.28,North,-999,-999.0,-999.0,14,-99.99,,,-99.99,,2013-04-27 18:12:00,
2013-04-27 12:22:00,59.0,10.0,30.28,North,-999,-999.0,-999.0,14,-99.99,,,-99.99,,2013-04-27 18:22:00,
2013-04-27 12:32:00,59.0,10.0,30.28,North,-999,-999.0,-999.0,14,-99.99,,,-99.99,,2013-04-27 18:32:00,
2013-04-27 12:42:00,59.0,10.0,30.28,North,-999,-999.0,-999.0,14,-99.99,,,-99.99,,2013-04-27 18:42:00,
2013-04-27 12:51:00,59.0,11.0,30.27,North,-999,-999.0,-999.0,14,-99.99,,,-99.99,,2013-04-27 18:51:00,
2013-04-27 13:02:00,59.0,11.0,30.27,North,-999,-999.0,-999.0,14,-99.99,,,-99.99,,2013-04-27 19:02:00,
2013-04-27 13:11:00,60.0,12.0,30.25,North,-999,-999.0,-999.0,14,-99.99,,,-99.99,,2013-04-27 19:11:00,
2013-04-27 13:21:00,60.0,12.0,30.25,North,-999,-999.0,-999.0,14,-99.99,,,-99.99,,2013-04-27 19:21:00,
2013-04-27 13:32:00,60.0,12.0,30.25,North,-999,-999.0,-999.0,14,-99.99,,,-99.99,,2013-04-27 19:32:00,
2013-04-27 13:42:00,60.0,12.0,30.25,North,-999,-999.0,-999.0,14,-99.99,,,-99.99,,2013-04-27 19:42:00,
2013-04-27 13:52:00,60.0,12.0,30.24,North,-999,-999.0,-999.0,14,-99.99,,,-99.99,,2013-04-27 19:52:00,
2013-04-27 14:02:00,60.0,12.0,30.24,North,-999,-999.0,-999.0,14,-99.99,,,-99.99,,2013-04-27 20:02:00,
2013-04-27 14:11:00,60.0,8.0,30.23,North,-999,-999.0,-999.0,12,-99.99,,,-99.99,,2013-04-27 20:11:00,
2013-04-27 14:21:00,60.0,8.0,30.23,North,-999,-999.0,-999.0,12,-99.99,,,-99.99,,2013-04-27 20:21:00,
2013-04-27 14:32:00,60.0,8.0,30.23,North,-999,-999.0,-999.0,12,-99.99,,,-99.99,,2013-04-27 20:32:00,
2013-04-27 14:42:00,62.0,11.0,30.22,North,-999,-999.0,-999.0,13,-99.99,,,-99.99,,2013-04-27 20:42:00,
2013-04-27 14:52:00,62.0,11.0,30.22,North,-999,-999.0,-999.0,13,-99.99,,,-99.99,,2013-04-27 20:52:00,
2013-04-27 15:02:00,62.0,11.0,30.22,North,-999,-999.0,-999.0,13,-99.99,,,-99.99,,2013-04-27 21:02:00,
2013-04-27 15:11:00,61.0,9.0,30.21,North,-999,-999.0,-999.0,12,-99.99,,,-99.99,,2013-04-27 21:11:00,
2013-04-27 15:21:00,61.0,9.0,30.21,North,-999,-999.0,-999.0,12,-99.99,,,-99.99,,2013-04-27 21:21:00,
2013-04-27 15:32:00,61.0,9.0,30.21,North,-999,-999.0,-999.0,12,-99.99,,,-99.99,,2013-04-27 21:32:00,
2013-04-27 15:43:00,61.0,9.0,30.21,North,-999,-999.0,-999.0,12,-99.99,,,-99.99,,2013-04-27 21:43:00,
2013-04-27 15:53:00,61.0,8.0,30.20,North,-999,-999.0,-999.0,12,-99.99,,,-99.99,,2013-04-27 21:53:00,
2013-04-27 16:02:00,61.0,8.0,30.20,North,-999,-999.0,-999.0,12,-99.99,,,-99.99,,2013-04-27 22:02:00,
2013-04-27 16:13:00,61.0,8.0,30.20,North,-999,-999.0,-999.0,12,-99.99,,,-99.99,,2013-04-27 22:13:00,
2013-04-27 16:22:00,62.0,12.0,30.20,North,-999,-999.0,-999.0,13,-99.99,,,-99.99,,2013-04-27 22:22:00,
2013-04-27 16:32:00,62.0,12.0,30.20,North,-999,-999.0,-999.0,13,-99.99,,,-99.99,,2013-04-27 22:32:00,
2013-04-27 16:42:00,62.0,13.0,30.18,North,-999,-999.0,-999.0,14,-99.99,,,-99.99,,2013-04-27 22:42:00,
2013-04-27 16:52:00,62.0,13.0,30.18,North,-999,-999.0,-999.0,14,-99.99,,,-99.99,,2013-04-27 22:52:00,
2013-04-27 17:02:00,62.0,13.0,30.18,North,-999,-999.0,-999.0,14,-99.99,,,-99.99,,2013-04-27 23:02:00,
2013-04-27 17:11:00,62.0,16.0,30.18,North,-999,-999.0,-999.0,16,-99.99,,,-99.99,,2013-04-27 23:11:00,
2013-04-27 17:22:00,62.0,16.0,30.18,North,-999,-999.0,-999.0,16,-99.99,,,-99.99,,2013-04-27 23:22:00,
2013-04-27 17:32:00,62.0,16.0,30.18,North,-999,-999.0,-999.0,16,-99.99,,,-99.99,,2013-04-27 23:32:00,
2013-04-27 17:42:00,62.0,11.0,30.17,North,-999,-999.0,-999.0,13,-99.99,,,-99.99,,2013-04-27 23:42:00,
2013-04-27 17:52:00,62.0,11.0,30.17,North,-999,-999.0,-999.0,13,-99.99,,,-99.99,,2013-04-27 23:52:00,
2013-04-27 18:01:00,62.0,11.0,30.17,North,-999,-999.0,-999.0,13,-99.99,,,-99.99,,2013-04-28 00:01:00,
2013-04-27 18:11:00,62.0,11.0,30.17,North,-999,-999.0,-999.0,13,-99.99,,,-99.99,,2013-04-28 00:11:00,
2013-04-27 18:21:00,62.0,11.0,30.17,North,-999,-999.0,-999.0,13,-99.99,,,-99.99,,2013-04-28 00:21:00,
2013-04-27 18:43:00,61.0,12.0,30.17,North,-999,-999.0,-999.0,14,-99.99,,,-99.99,,2013-04-28 00:43:00,
2013-04-27 18:52:00,61.0,12.0,30.17,North,-999,-999.0,-999.0,14,-99.99,,,-99.99,,2013-04-28 00:52:00,
2013-04-27 19:01:00,61.0,12.0,30.17,North,-999,-999.0,-999.0,14,-99.99,,,-99.99,,2013-04-28 01:01:00,
2013-04-27 19:11:00,60.0,12.0,30.16,North,-999,-999.0,-999.0,14,-99.99,,,-99.99,,2013-04-28 01:11:00,
2013-04-27 19:21:00,60.0,12.0,30.16,North,-999,-999.0,-999.0,14,-99.99,,,-99.99,,2013-04-28 01:21:00,
2013-04-27 19:31:00,60.0,12.0,30.16,North,-999,-999.0,-999.0,14,-99.99,,,-99.99,,2013-04-28 01:31:00,
2013-04-27 19:42:00,55.0,16.0,30.16,North,-999,-999.0,-999.0,21,-99.99,,,-99.99,,2013-04-28 01:42:00,
2013-04-27 19:52:00,55.0,16.0,30.16,North,-999,-999.0,-999.0,21,-99.99,,,-99.99,,2013-04-28 01:52:00,
2013-04-27 20:02:00,55.0,16.0,30.16,North,-999,-999.0,-999.0,21,-99.99,,,-99.99,,2013-04-28 02:02:00,
2013-04-27 20:12:00,52.0,15.0,30.16,North,-999,-999.0,-999.0,22,-99.99,,,-99.99,,2013-04-28 02:12:00,
2013-04-27 20:22:00,52.0,15.0,30.16,North,-999,-999.0,-999.0,22,-99.99,,,-99.99,,2013-04-28 02:22:00,
2013-04-27 20:32:00,52.0,15.0,30.16,North,-999,-999.0,-999.0,22,-99.99,,,-99.99,,2013-04-28 02:32:00,
2013-04-27 20:42:00,52.0,15.0,30.16,North,-999,-999.0,-999.0,22,-99.99,,,-99.99,,2013-04-28 02:42:00,
2013-04-27 20:52:00,52.0,15.0,30.16,North,-999,-999.0,-999.0,22,-99.99,,,-99.99,,2013-04-28 02:52:00,
2013-04-27 21:01:00,52.0,15.0,30.16,North,-999,-999.0,-999.0,22,-99.99,,,-99.99,,2013-04-28 03:01:00,
2013-04-27 21:11:00,52.0,14.0,30.16,North,-999,-999.0,-999.0,22,-99.99,,,-99.99,,2013-04-28 03:11:00,
2013-04-27 21:21:00,52.0,14.0,30.16,North,-999,-999.0,-999.0,22,-99.99,,,-99.99,,2013-04-28 03:21:00,
2013-04-27 21:33:00,52.0,14.0,30.16,North,-999,-999.0,-999.0,22,-99.99,,,-99.99,,2013-04-28 03:33:00,
2013-04-27 21:43:00,52.0,14.0,30.16,North,-999,-999.0,-999.0,22,-99.99,,,-99.99,,2013-04-28 03:43:00,
2013-04-27 21:53:00,52.0,14.0,30.16,North,-999,-999.0,-999.0,21,-99.99,,,-99.99,,2013-04-28 03:53:00,
2013-04-27 22:02:00,52.0,14.0,30.16,North,-999,-999.0,-999.0,21,-99.99,,,-99.99,,2013-04-28 04:02:00,
2013-04-27 22:13:00,46.0,16.0,30.16,North,-999,-999.0,-999.0,30,-99.99,,,-99.99,,2013-04-28 04:13:00,
2013-04-27 22:22:00,46.0,16.0,30.16,North,-999,-999.0,-999.0,30,-99.99,,,-99.99,,2013-04-28 04:22:00,
2013-04-27 22:32:00,46.0,16.0,30.16,North,-999,-999.0,-999.0,30,-99.99,,,-99.99,,2013-04-28 04:32:00,
2013-04-27 22:43:00,43.0,18.0,30.16,North,-999,-999.0,-999.0,36,-99.99,,,-99.99,,2013-04-28 04:43:00,
2013-04-27 22:53:00,43.0,18.0,30.16,North,-999,-999.0,-999.0,36,-99.99,,,-99.99,,2013-04-28 04:53:00,
2013-04-27 23:02:00,43.0,18.0,30.16,North,-999,-999.0,-999.0,36,-99.99,,,-99.99,,2013-04-28 05:02:00,
2013-04-27 23:12:00,44.0,17.0,30.16,North,-999,-999.0,-999.0,34,-99.99,,,-99.99,,2013-04-28 05:12:00,
2013-04-27 23:22:00,44.0,17.0,30.16,North,-999,-999.0,-999.0,34,-99.99,,,-99.99,,2013-04-28 05:22:00,
2013-04-27 23:32:00,44.0,17.0,30.16,North,-999,-999.0,-999.0,34,-99.99,,,-99.99,,2013-04-28 05:32:00,
2013-04-27 23:42:00,44.0,17.0,30.16,North,-999,-999.0,-999.0,34,-99.99,,,-99.99,,2013-04-28 05:42:00,
2013-04-27 23:52:00,45.0,16.0,30.16,North,-999,-999.0,-999.0,30,-99.99,,,-99.99,,2013-04-28 05:52:00,